| time (UTC) | temp F | wind direction | speed knots | gust knots | rain 1hr in | rain 24hr in | rain mn in | humidity % | barometer mb |
| 20260508222633 | 82 | 251 | 3.5 | 9.6 | 0.00 | 0.00 | 0.00 | 31 | 1016.5 |
| 20260508222133 | 83 | 252 | 6.1 | 9.6 | 0.00 | 0.00 | 0.00 | 34 | 1016.5 |
| 20260508221633 | 83 | 229 | 1.7 | 14.8 | 0.00 | 0.00 | 0.00 | 32 | 1016.6 |
| 20260508221133 | 83 | 202 | 1.7 | 14.8 | 0.00 | 0.00 | 0.00 | 29 | 1016.6 |
| 20260508220633 | 83 | 311 | 0.0 | 11.3 | 0.00 | 0.00 | 0.00 | 30 | 1016.7 |
| 20260508220133 | 83 | 245 | 7.0 | 11.3 | 0.00 | 0.00 | 0.00 | 29 | 1016.7 |
| 20260508215633 | 83 | 239 | 7.0 | 11.3 | 0.00 | 0.00 | 0.00 | 29 | 1017.0 |
| 20260508215133 | 83 | 142 | 0.0 | 12.2 | 0.00 | 0.00 | 0.00 | 29 | 1017.0 |
| 20260508214633 | 83 | 205 | 5.2 | 13.9 | 0.00 | 0.00 | 0.00 | 29 | 1017.1 |
| 20260508214133 | 83 | 225 | 7.0 | 13.9 | 0.00 | 0.00 | 0.00 | 28 | 1017.0 |
| 20260508213633 | 83 | 237 | 6.1 | 11.3 | 0.00 | 0.00 | 0.00 | 30 | 1017.2 |
| 20260508213133 | 83 | 202 | 7.0 | 11.3 | 0.00 | 0.00 | 0.00 | 29 | 1017.2 |
| 20260508212633 | 83 | 229 | 7.0 | 11.3 | 0.00 | 0.00 | 0.00 | 31 | 1017.3 |
| 20260508212132 | 83 | 219 | 7.0 | 11.3 | 0.00 | 0.00 | 0.00 | 29 | 1017.3 |
| 20260508211633 | 84 | 250 | 1.7 | 11.3 | 0.00 | 0.00 | 0.00 | 29 | 1017.3 |
| 20260508211132 | 84 | 232 | 6.1 | 11.3 | 0.00 | 0.00 | 0.00 | 33 | 1017.5 |
| 20260508210632 | 83 | 211 | 3.5 | 8.7 | 0.00 | 0.00 | 0.00 | 33 | 1017.4 |
| 20260508205632 | 83 | 229 | 2.6 | 12.2 | 0.00 | 0.00 | 0.00 | 33 | 1017.4 |
| 20260508205132 | 83 | 355 | 1.7 | 12.2 | 0.00 | 0.00 | 0.00 | 32 | 1017.5 |
| 20260508204632 | 83 | 214 | 5.2 | 12.2 | 0.00 | 0.00 | 0.00 | 33 | 1017.4 |
| 20260508203632 | 83 | 195 | 7.0 | 10.4 | 0.00 | 0.00 | 0.00 | 34 | 1017.6 |
| 20260508203132 | 83 | 235 | 6.1 | 10.4 | 0.00 | 0.00 | 0.00 | 32 | 1017.3 |
| 20260508202632 | 83 | 172 | 2.6 | 9.6 | 0.00 | 0.00 | 0.00 | 35 | 1017.5 |
| 20260508202132 | 83 | 215 | 6.1 | 9.6 | 0.00 | 0.00 | 0.00 | 36 | 1017.6 |
| 20260508201632 | 82 | 217 | 1.7 | 9.6 | 0.00 | 0.00 | 0.00 | 34 | 1017.3 |
| 20260508201132 | 83 | 249 | 3.5 | 7.8 | 0.00 | 0.00 | 0.00 | 34 | 1017.6 |
| 20260508200632 | 82 | 265 | 5.2 | 7.8 | 0.00 | 0.00 | 0.00 | 36 | 1017.4 |
| 20260508200132 | 82 | 212 | 3.5 | 9.6 | 0.00 | 0.00 | 0.00 | 34 | 1017.3 |
| 20260508195632 | 83 | 248 | 7.0 | 11.3 | 0.00 | 0.00 | 0.00 | 35 | 1017.7 |
| 20260508195132 | 83 | 262 | 9.6 | 11.3 | 0.00 | 0.00 | 0.00 | 35 | 1017.6 |
| 20260508194632 | 83 | 235 | 5.2 | 10.4 | 0.00 | 0.00 | 0.00 | 33 | 1017.6 |
| 20260508193632 | 82 | 245 | 6.1 | 11.3 | 0.00 | 0.00 | 0.00 | 38 | 1018.0 |
| 20260508192631 | 82 | 217 | 4.3 | 8.7 | 0.00 | 0.00 | 0.00 | 36 | 1017.9 |
| 20260508192132 | 82 | 255 | 7.8 | 10.4 | 0.00 | 0.00 | 0.00 | 38 | 1018.0 |
| 20260508191631 | 82 | 218 | 6.1 | 13.0 | 0.00 | 0.00 | 0.00 | 38 | 1018.0 |
| 20260508191132 | 82 | 252 | 8.7 | 13.0 | 0.00 | 0.00 | 0.00 | 39 | 1018.0 |
| 20260508190631 | 82 | 253 | 4.3 | 10.4 | 0.00 | 0.00 | 0.00 | 38 | 1018.1 |
| 20260508190131 | 83 | 250 | 7.0 | 11.3 | 0.00 | 0.00 | 0.00 | 36 | 1018.1 |
| 20260508185631 | 83 | 232 | 8.7 | 11.3 | 0.00 | 0.00 | 0.00 | 33 | 1018.0 |
| 20260508185131 | 83 | 250 | 1.7 | 10.4 | 0.00 | 0.00 | 0.00 | 32 | 1018.1 |
| 20260508184631 | 83 | 271 | 7.0 | 11.3 | 0.00 | 0.00 | 0.00 | 32 | 1018.1 |
| 20260508184131 | 82 | 260 | 1.7 | 11.3 | 0.00 | 0.00 | 0.00 | 31 | 1018.2 |
| 20260508183631 | 82 | 225 | 2.6 | 12.2 | 0.00 | 0.00 | 0.00 | 29 | 1018.0 |
| 20260508183131 | 83 | 244 | 7.8 | 12.2 | 0.00 | 0.00 | 0.00 | 30 | 1018.1 |
| 20260508182631 | 83 | 198 | 7.0 | 10.4 | 0.00 | 0.00 | 0.00 | 29 | 1017.9 |
| 20260508182131 | 83 | 231 | 5.2 | 10.4 | 0.00 | 0.00 | 0.00 | 29 | 1018.0 |
| 20260508181631 | 83 | 231 | 4.3 | 9.6 | 0.00 | 0.00 | 0.00 | 30 | 1018.1 |
| 20260508181130 | 82 | 263 | 6.1 | 12.2 | 0.00 | 0.00 | 0.00 | 30 | 1018.1 |
| 20260508180631 | 82 | 265 | 8.7 | 12.2 | 0.00 | 0.00 | 0.00 | 29 | 1018.1 |
| 20260508180131 | 82 | 233 | 2.6 | 11.3 | 0.00 | 0.00 | 0.00 | 31 | 1018.0 |
| 20260508175631 | 82 | 212 | 4.3 | 10.4 | 0.00 | 0.00 | 0.00 | 27 | 1018.2 |
| 20260508175130 | 81 | 211 | 1.7 | 10.4 | 0.00 | 0.00 | 0.00 | 29 | 1018.0 |
| 20260508174631 | 82 | 196 | 6.1 | 9.6 | 0.00 | 0.00 | 0.00 | 28 | 1018.3 |
| 20260508174130 | 82 | 267 | 2.6 | 11.3 | 0.00 | 0.00 | 0.00 | 29 | 1018.3 |
| 20260508173630 | 81 | 235 | 3.5 | 11.3 | 0.00 | 0.00 | 0.00 | 30 | 1018.0 |
| 20260508173130 | 82 | 218 | 4.3 | 8.7 | 0.00 | 0.00 | 0.00 | 30 | 1018.3 |
| 20260508172631 | 82 | 223 | 3.5 | 10.4 | 0.00 | 0.00 | 0.00 | 32 | 1018.3 |
| 20260508171130 | 81 | 248 | 3.5 | 9.6 | 0.00 | 0.00 | 0.00 | 30 | 1017.9 |
| 20260508170630 | 80 | 269 | 0.9 | 11.3 | 0.00 | 0.00 | 0.00 | 36 | 1018.0 |
| 20260508170130 | 79 | 248 | 4.3 | 11.3 | 0.00 | 0.00 | 0.00 | 30 | 1017.6 |
| 20260508165629 | 79 | 215 | 1.7 | 7.8 | 0.00 | 0.00 | 0.00 | 39 | 1018.0 |
| 20260508165129 | 78 | 253 | 6.1 | 7.8 | 0.00 | 0.00 | 0.00 | 43 | 1017.8 |
| 20260508164630 | 77 | 227 | 3.5 | 7.8 | 0.00 | 0.00 | 0.00 | 44 | 1017.7 |
| 20260508164130 | 77 | 237 | 0.0 | 7.0 | 0.00 | 0.00 | 0.00 | 42 | 1017.6 |
| 20260508163129 | 76 | 210 | 1.7 | 7.0 | 0.00 | 0.00 | 0.00 | 44 | 1017.4 |
| 20260508162629 | 75 | 250 | 2.6 | 7.0 | 0.00 | 0.00 | 0.00 | 46 | 1017.4 |
| 20260508162129 | 75 | 217 | 0.9 | 7.0 | 0.00 | 0.00 | 0.00 | 45 | 1017.5 |
| 20260508161629 | 74 | 219 | 2.6 | 7.0 | 0.00 | 0.00 | 0.00 | 47 | 1017.2 |
| 20260508161129 | 74 | 240 | 4.3 | 4.3 | 0.00 | 0.00 | 0.00 | 46 | 1017.3 |
| 20260508160629 | 73 | 244 | 2.6 | 5.2 | 0.00 | 0.00 | 0.00 | 50 | 1017.3 |
| 20260508160129 | 72 | 225 | 1.7 | 5.2 | 0.00 | 0.00 | 0.00 | 51 | 1017.1 |
| 20260508155629 | 72 | 204 | 0.0 | 4.3 | 0.00 | 0.00 | 0.00 | 49 | 1017.2 |
| 20260508155129 | 71 | 198 | 1.7 | 4.3 | 0.00 | 0.00 | 0.00 | 50 | 1017.2 |
| 20260508154629 | 70 | 199 | 0.9 | 3.5 | 0.00 | 0.00 | 0.00 | 52 | 1017.0 |
| 20260508154129 | 70 | 221 | 0.0 | 4.3 | 0.00 | 0.00 | 0.00 | 53 | 1017.0 |
| 20260508153628 | 69 | 227 | 0.9 | 4.3 | 0.00 | 0.00 | 0.00 | 54 | 1017.0 |
| 20260508152629 | 67 | 236 | 1.7 | 6.1 | 0.00 | 0.00 | 0.00 | 54 | 1016.8 |
| 20260508152128 | 66 | 228 | 0.0 | 2.6 | 0.00 | 0.00 | 0.00 | 57 | 1016.7 |
| 20260508151628 | 66 | 237 | 0.0 | 2.6 | 0.00 | 0.00 | 0.00 | 59 | 1016.6 |
| 20260508151129 | 65 | 239 | 0.0 | 2.6 | 0.00 | 0.00 | 0.00 | 61 | 1016.6 |
| 20260508150629 | 64 | 240 | 1.7 | 1.7 | 0.00 | 0.00 | 0.00 | 61 | 1016.5 |
| 20260508150128 | 63 | 242 | 0.0 | 1.7 | 0.00 | 0.00 | 0.00 | 62 | 1016.3 |
| 20260508145628 | 63 | 242 | 0.0 | 3.5 | 0.00 | 0.00 | 0.00 | 63 | 1016.8 |
| 20260508145128 | 62 | 242 | 0.9 | 3.5 | 0.00 | 0.00 | 0.00 | 64 | 1016.8 |
| 20260508144628 | 61 | 286 | 0.0 | 0.0 | 0.00 | 0.00 | 0.00 | 72 | 1016.5 |
| 20260508144129 | 60 | 58 | 0.0 | 0.0 | 0.00 | 0.00 | 0.00 | 71 | 1016.5 |
| 20260508143629 | 59 | 59 | 0.0 | 2.6 | 0.00 | 0.00 | 0.00 | 75 | 1016.3 |
| 20260508143128 | 59 | 58 | 0.0 | 3.5 | 0.00 | 0.00 | 0.00 | 74 | 1016.2 |
| 20260508142628 | 58 | 61 | 1.7 | 3.5 | 0.00 | 0.00 | 0.00 | 75 | 1016.2 |
| 20260508142132 | 57 | 35 | 2.6 | 4.3 | 0.00 | 0.00 | 0.00 | 78 | 1015.9 |
| 20260508141628 | 56 | 51 | 1.7 | 5.2 | 0.00 | 0.00 | 0.00 | 78 | 1015.9 |
| 20260508141128 | 55 | 73 | 4.3 | 5.2 | 0.00 | 0.00 | 0.00 | 79 | 1015.8 |
| 20260508140628 | 54 | 69 | 3.5 | 5.2 | 0.00 | 0.00 | 0.00 | 80 | 1015.8 |
| 20260508140128 | 53 | 29 | 2.6 | 5.2 | 0.00 | 0.00 | 0.00 | 81 | 1015.5 |
| 20260508134628 | 50 | 78 | 3.5 | 7.0 | 0.00 | 0.00 | 0.00 | 83 | 1015.8 |
| 20260508134127 | 49 | 53 | 4.3 | 7.0 | 0.00 | 0.00 | 0.00 | 83 | 1015.7 |
| 20260508133628 | 49 | 62 | 4.3 | 6.1 | 0.00 | 0.00 | 0.00 | 83 | 1015.6 |
| 20260508133128 | 48 | 44 | 3.5 | 7.0 | 0.00 | 0.00 | 0.00 | 83 | 1015.6 |
| 20260508132627 | 48 | 55 | 3.5 | 7.0 | 0.00 | 0.00 | 0.00 | 83 | 1015.7 |
| 20260508132129 | 48 | 24 | 4.3 | 7.0 | 0.00 | 0.00 | 0.00 | 82 | 1015.5 |
| 20260508131627 | 48 | 57 | 4.3 | 6.1 | 0.00 | 0.00 | 0.00 | 82 | 1015.6 |
| 20260508131127 | 48 | 44 | 3.5 | 6.1 | 0.00 | 0.00 | 0.00 | 82 | 1015.5 |
| 20260508130627 | 48 | 67 | 5.2 | 6.1 | 0.00 | 0.00 | 0.00 | 81 | 1015.5 |
| 20260508130128 | 48 | 47 | 3.5 | 7.0 | 0.00 | 0.00 | 0.00 | 81 | 1015.5 |
| 20260508125629 | 48 | 57 | 6.1 | 7.0 | 0.00 | 0.00 | 0.00 | 81 | 1015.8 |
| 20260508124627 | 48 | 51 | 4.3 | 7.0 | 0.00 | 0.00 | 0.00 | 80 | 1015.8 |
| 20260508124127 | 48 | 41 | 4.3 | 7.0 | 0.00 | 0.00 | 0.00 | 80 | 1015.8 |
| 20260508123627 | 48 | 69 | 5.2 | 7.0 | 0.00 | 0.00 | 0.00 | 80 | 1015.8 |
| 20260508123127 | 48 | 75 | 6.1 | 7.0 | 0.00 | 0.00 | 0.00 | 80 | 1015.8 |
| 20260508122627 | 48 | 57 | 3.5 | 7.8 | 0.00 | 0.00 | 0.00 | 80 | 1015.9 |
| 20260508122127 | 48 | 78 | 4.3 | 7.8 | 0.00 | 0.00 | 0.00 | 80 | 1015.8 |
| 20260508121627 | 48 | 70 | 5.2 | 7.0 | 0.00 | 0.00 | 0.00 | 80 | 1015.7 |
| 20260508121127 | 48 | 62 | 4.3 | 7.0 | 0.00 | 0.00 | 0.00 | 79 | 1015.7 |
| 20260508120627 | 48 | 64 | 7.0 | 7.0 | 0.00 | 0.00 | 0.00 | 79 | 1015.8 |
| 20260508120127 | 48 | 36 | 4.3 | 5.2 | 0.00 | 0.00 | 0.00 | 79 | 1015.7 |
| 20260508115626 | 48 | 52 | 4.3 | 6.1 | 0.00 | 0.00 | 0.00 | 79 | 1016.2 |
| 20260508114626 | 48 | 44 | 4.3 | 5.2 | 0.00 | 0.00 | 0.00 | 79 | 1016.2 |
| 20260508114127 | 48 | 40 | 4.3 | 5.2 | 0.00 | 0.00 | 0.00 | 78 | 1016.2 |
| 20260508113627 | 48 | 46 | 4.3 | 6.1 | 0.00 | 0.00 | 0.00 | 79 | 1016.2 |
| 20260508113127 | 48 | 45 | 3.5 | 6.1 | 0.00 | 0.00 | 0.00 | 79 | 1016.1 |
| 20260508112626 | 48 | 51 | 4.3 | 5.2 | 0.00 | 0.00 | 0.00 | 79 | 1016.1 |
| 20260508112126 | 48 | 38 | 4.3 | 6.1 | 0.00 | 0.00 | 0.00 | 79 | 1016.0 |
| 20260508111634 | 48 | 33 | 4.3 | 6.1 | 0.00 | 0.00 | 0.00 | 79 | 1016.1 |
| 20260508111126 | 48 | 73 | 3.5 | 6.1 | 0.00 | 0.00 | 0.00 | 79 | 1016.0 |
| 20260508110626 | 48 | 43 | 3.5 | 7.0 | 0.00 | 0.00 | 0.00 | 80 | 1016.1 |
| 20260508110126 | 48 | 32 | 4.3 | 7.0 | 0.00 | 0.00 | 0.00 | 80 | 1016.2 |
| 20260508105626 | 48 | 51 | 3.5 | 6.1 | 0.00 | 0.00 | 0.00 | 80 | 1016.6 |
| 20260508105126 | 48 | 45 | 3.5 | 6.1 | 0.00 | 0.00 | 0.00 | 80 | 1016.7 |
| 20260508104626 | 48 | 53 | 4.3 | 7.0 | 0.00 | 0.00 | 0.00 | 80 | 1016.7 |
| 20260508104126 | 48 | 51 | 3.5 | 7.0 | 0.00 | 0.00 | 0.00 | 80 | 1016.7 |
| 20260508103626 | 48 | 40 | 4.3 | 5.2 | 0.00 | 0.00 | 0.00 | 80 | 1016.8 |
| 20260508103126 | 48 | 28 | 4.3 | 5.2 | 0.00 | 0.00 | 0.00 | 80 | 1016.9 |
| 20260508102626 | 48 | 50 | 4.3 | 5.2 | 0.00 | 0.00 | 0.00 | 80 | 1016.9 |
| 20260508101625 | 49 | 49 | 4.3 | 6.1 | 0.00 | 0.00 | 0.00 | 80 | 1017.0 |
| 20260508101126 | 49 | 52 | 4.3 | 6.1 | 0.00 | 0.00 | 0.00 | 80 | 1016.9 |
| 20260508100626 | 49 | 79 | 3.5 | 7.0 | 0.00 | 0.00 | 0.00 | 80 | 1016.9 |
| 20260508100125 | 49 | 74 | 2.6 | 7.0 | 0.00 | 0.00 | 0.00 | 79 | 1017.0 |
| 20260508095625 | 49 | 34 | 4.3 | 6.1 | 0.00 | 0.00 | 0.00 | 79 | 1017.0 |
| 20260508095125 | 49 | 43 | 3.5 | 5.2 | 0.00 | 0.00 | 0.00 | 79 | 1017.0 |
| 20260508094625 | 49 | 43 | 4.3 | 6.1 | 0.00 | 0.00 | 0.00 | 79 | 1017.0 |
| 20260508093626 | 49 | 66 | 3.5 | 5.2 | 0.00 | 0.00 | 0.00 | 78 | 1016.9 |
| 20260508093126 | 49 | 67 | 5.2 | 6.1 | 0.00 | 0.00 | 0.00 | 78 | 1016.9 |
| 20260508091625 | 49 | 80 | 7.0 | 7.0 | 0.00 | 0.00 | 0.00 | 78 | 1017.1 |
| 20260508090125 | 49 | 76 | 3.5 | 7.8 | 0.00 | 0.00 | 0.00 | 79 | 1017.3 |
| 20260508085625 | 49 | 60 | 3.5 | 7.8 | 0.00 | 0.00 | 0.00 | 79 | 1017.4 |
| 20260508085124 | 49 | 19 | 4.3 | 6.1 | 0.00 | 0.00 | 0.00 | 78 | 1017.4 |
| 20260508084625 | 49 | 59 | 3.5 | 6.1 | 0.00 | 0.00 | 0.00 | 78 | 1017.6 |
| 20260508083625 | 49 | 65 | 1.7 | 7.0 | 0.00 | 0.00 | 0.00 | 78 | 1017.6 |
| 20260508083124 | 49 | 61 | 2.6 | 4.3 | 0.00 | 0.00 | 0.00 | 78 | 1017.7 |
| 20260508082625 | 49 | 45 | 2.6 | 4.3 | 0.00 | 0.00 | 0.00 | 77 | 1017.6 |
| 20260508082124 | 49 | 30 | 1.7 | 5.2 | 0.00 | 0.00 | 0.00 | 77 | 1017.7 |
| 20260508081624 | 50 | 26 | 3.5 | 5.2 | 0.00 | 0.00 | 0.00 | 76 | 1017.7 |
| 20260508081125 | 50 | 50 | 3.5 | 5.2 | 0.00 | 0.00 | 0.00 | 76 | 1017.7 |
| 20260508080625 | 50 | 61 | 1.7 | 5.2 | 0.00 | 0.00 | 0.00 | 76 | 1017.8 |
| 20260508080125 | 50 | 30 | 2.6 | 6.1 | 0.00 | 0.00 | 0.00 | 76 | 1017.7 |
| 20260508075625 | 50 | 46 | 4.3 | 6.1 | 0.00 | 0.00 | 0.00 | 75 | 1017.7 |
| 20260508075125 | 50 | 32 | 2.6 | 5.2 | 0.00 | 0.00 | 0.00 | 75 | 1017.8 |
| 20260508074624 | 50 | 64 | 2.6 | 6.1 | 0.00 | 0.00 | 0.00 | 75 | 1017.8 |
| 20260508074124 | 50 | 51 | 3.5 | 6.1 | 0.00 | 0.00 | 0.00 | 75 | 1018.0 |
| 20260508073124 | 50 | 44 | 5.2 | 5.2 | 0.00 | 0.00 | 0.00 | 75 | 1018.0 |
| 20260508072124 | 50 | 59 | 4.3 | 7.0 | 0.00 | 0.00 | 0.00 | 75 | 1018.1 |
| 20260508071624 | 50 | 38 | 3.5 | 7.0 | 0.00 | 0.00 | 0.00 | 74 | 1018.0 |
| 20260508070624 | 50 | 53 | 3.5 | 5.2 | 0.00 | 0.00 | 0.00 | 74 | 1018.0 |
| 20260508070155 | 50 | 36 | 4.3 | 6.1 | 0.00 | 0.00 | 0.00 | 74 | 1018.1 |
| 20260508065624 | 51 | 34 | 4.3 | 6.1 | 0.00 | 0.00 | 0.00 | 73 | 1018.1 |
| 20260508065124 | 51 | 46 | 3.5 | 5.2 | 0.00 | 0.00 | 0.00 | 73 | 1018.2 |
| 20260508064124 | 51 | 63 | 4.3 | 5.2 | 0.00 | 0.00 | 0.00 | 73 | 1018.3 |
| 20260508063123 | 51 | 70 | 5.2 | 6.1 | 0.00 | 0.00 | 0.00 | 72 | 1018.3 |
| 20260508062623 | 51 | 61 | 4.3 | 6.1 | 0.00 | 0.00 | 0.00 | 72 | 1018.3 |
| 20260508062123 | 52 | 29 | 4.3 | 6.1 | 0.00 | 0.00 | 0.00 | 73 | 1018.5 |
| 20260508061623 | 52 | 59 | 4.3 | 5.2 | 0.00 | 0.00 | 0.00 | 71 | 1018.5 |
| 20260508061124 | 52 | 71 | 4.3 | 5.2 | 0.00 | 0.00 | 0.00 | 72 | 1018.4 |
| 20260508060623 | 52 | 40 | 3.5 | 6.1 | 0.00 | 0.00 | 0.00 | 71 | 1018.3 |
| 20260508060153 | 52 | 69 | 3.5 | 6.1 | 0.00 | 0.00 | 0.00 | 71 | 1018.3 |
| 20260508055623 | 52 | 53 | 4.3 | 5.2 | 0.00 | 0.00 | 0.00 | 72 | 1018.3 |
| 20260508055123 | 52 | 49 | 4.3 | 5.2 | 0.00 | 0.00 | 0.00 | 71 | 1018.3 |
| 20260508054623 | 52 | 46 | 4.3 | 5.2 | 0.00 | 0.00 | 0.00 | 72 | 1018.2 |
| 20260508054123 | 52 | 36 | 3.5 | 6.1 | 0.00 | 0.00 | 0.00 | 72 | 1018.2 |
| 20260508053623 | 52 | 49 | 2.6 | 6.1 | 0.00 | 0.00 | 0.00 | 72 | 1018.3 |
| 20260508053123 | 52 | 58 | 4.3 | 5.2 | 0.00 | 0.00 | 0.00 | 73 | 1018.4 |
| 20260508052623 | 52 | 55 | 2.6 | 4.3 | 0.00 | 0.00 | 0.00 | 73 | 1018.4 |
| 20260508052122 | 52 | 60 | 2.6 | 4.3 | 0.00 | 0.00 | 0.00 | 74 | 1018.4 |
| 20260508051122 | 53 | 53 | 1.7 | 4.3 | 0.00 | 0.00 | 0.00 | 75 | 1018.6 |
| 20260508050623 | 53 | 32 | 2.6 | 3.5 | 0.00 | 0.00 | 0.00 | 76 | 1018.6 |
| 20260508050153 | 53 | 37 | 1.7 | 3.5 | 0.00 | 0.00 | 0.00 | 76 | 1018.6 |
| 20260508045623 | 53 | 249 | 1.7 | 2.6 | 0.00 | 0.00 | 0.00 | 77 | 1018.4 |
| 20260508045123 | 54 | 242 | 0.0 | 2.6 | 0.00 | 0.00 | 0.00 | 77 | 1018.4 |
| 20260508044623 | 54 | 242 | 0.0 | 0.0 | 0.00 | 0.00 | 0.00 | 77 | 1018.4 |
| 20260508044122 | 54 | 242 | 0.0 | 0.0 | 0.00 | 0.00 | 0.00 | 75 | 1018.4 |
| 20260508043652 | 55 | 242 | 0.0 | 0.0 | 0.00 | 0.00 | 0.00 | 75 | 1018.5 |
| 20260508043152 | 55 | 242 | 0.0 | 0.0 | 0.00 | 0.00 | 0.00 | 74 | 1018.4 |
| 20260508042652 | 55 | 242 | 0.0 | 0.0 | 0.00 | 0.00 | 0.00 | 72 | 1018.4 |
| 20260508042152 | 55 | 242 | 0.0 | 0.0 | 0.00 | 0.00 | 0.00 | 64 | 1018.2 |
| 20260508041652 | 55 | 242 | 0.0 | 0.0 | 0.00 | 0.00 | 0.00 | 64 | 1018.1 |
| 20260508041152 | 55 | 242 | 0.0 | 0.0 | 0.00 | 0.00 | 0.00 | 61 | 1018.0 |
| 20260508040652 | 55 | 242 | 0.0 | 0.0 | 0.00 | 0.00 | 0.00 | 65 | 1017.8 |
| 20260508040152 | 55 | 241 | 0.0 | 0.0 | 0.00 | 0.00 | 0.00 | 66 | 1017.8 |
| 20260508035652 | 55 | 241 | 0.0 | 0.0 | 0.00 | 0.00 | 0.00 | 67 | 1017.6 |
| 20260508035152 | 55 | 241 | 0.0 | 0.0 | 0.00 | 0.00 | 0.00 | 66 | 1017.5 |
| 20260508034652 | 55 | 241 | 0.0 | 0.0 | 0.00 | 0.00 | 0.00 | 68 | 1017.5 |
| 20260508034152 | 55 | 241 | 0.0 | 0.0 | 0.00 | 0.00 | 0.00 | 71 | 1017.5 |
| 20260508033651 | 55 | 240 | 0.0 | 0.0 | 0.00 | 0.00 | 0.00 | 77 | 1017.3 |
| 20260508033152 | 56 | 238 | 0.0 | 0.0 | 0.00 | 0.00 | 0.00 | 79 | 1017.4 |
| 20260508032652 | 57 | 238 | 0.0 | 0.0 | 0.00 | 0.00 | 0.00 | 80 | 1017.5 |
| 20260508032151 | 57 | 238 | 0.0 | 0.0 | 0.00 | 0.00 | 0.00 | 80 | 1017.5 |
| 20260508031651 | 58 | 238 | 0.0 | 0.0 | 0.00 | 0.00 | 0.00 | 79 | 1017.5 |
| 20260508031151 | 59 | 238 | 0.0 | 0.0 | 0.00 | 0.00 | 0.00 | 79 | 1017.8 |
| 20260508030651 | 59 | 238 | 0.0 | 0.0 | 0.00 | 0.00 | 0.00 | 79 | 1017.8 |
| 20260508030151 | 60 | 238 | 0.0 | 0.0 | 0.00 | 0.00 | 0.00 | 78 | 1017.7 |
| 20260508024651 | 61 | 234 | 0.0 | 0.0 | 0.00 | 0.00 | 0.00 | 77 | 1016.8 |
| 20260508023651 | 62 | 234 | 0.0 | 0.0 | 0.00 | 0.00 | 0.00 | 76 | 1017.1 |
| 20260508023151 | 63 | 234 | 0.0 | 0.0 | 0.00 | 0.00 | 0.00 | 75 | 1017.1 |
| 20260508022650 | 64 | 234 | 0.0 | 0.0 | 0.00 | 0.00 | 0.00 | 74 | 1017.2 |
| 20260508022150 | 64 | 234 | 0.0 | 0.0 | 0.00 | 0.00 | 0.00 | 73 | 1017.1 |
| 20260508021651 | 65 | 234 | 0.0 | 0.9 | 0.00 | 0.00 | 0.00 | 71 | 1017.1 |
| 20260508021150 | 65 | 234 | 0.0 | 4.3 | 0.00 | 0.00 | 0.00 | 72 | 1017.1 |
| 20260508020650 | 66 | 235 | 0.0 | 4.3 | 0.00 | 0.00 | 0.00 | 71 | 1017.4 |
| 20260508020150 | 66 | 245 | 1.7 | 2.6 | 0.00 | 0.00 | 0.00 | 70 | 1017.3 |
| 20260508015650 | 67 | 245 | 0.0 | 0.9 | 0.00 | 0.00 | 0.00 | 70 | 1015.7 |
| 20260508015150 | 67 | 245 | 0.0 | 1.7 | 0.00 | 0.00 | 0.00 | 69 | 1015.7 |
| 20260508014650 | 67 | 245 | 0.0 | 4.3 | 0.00 | 0.00 | 0.00 | 69 | 1015.7 |
| 20260508014150 | 68 | 245 | 0.9 | 4.3 | 0.00 | 0.00 | 0.00 | 68 | 1016.1 |
| 20260508013650 | 68 | 247 | 4.3 | 5.2 | 0.00 | 0.00 | 0.00 | 68 | 1016.1 |
| 20260508013150 | 68 | 234 | 1.7 | 6.1 | 0.00 | 0.00 | 0.00 | 67 | 1015.9 |
| 20260508012650 | 68 | 206 | 2.6 | 6.1 | 0.00 | 0.00 | 0.00 | 67 | 1015.9 |
| 20260508012150 | 69 | 242 | 3.5 | 6.1 | 0.00 | 0.00 | 0.00 | 66 | 1016.0 |
| 20260508011650 | 69 | 237 | 4.3 | 7.8 | 0.00 | 0.00 | 0.00 | 66 | 1016.0 |
| 20260508011150 | 69 | 215 | 6.1 | 7.8 | 0.00 | 0.00 | 0.00 | 65 | 1016.0 |
| 20260508010650 | 70 | 260 | 2.6 | 8.7 | 0.00 | 0.00 | 0.00 | 65 | 1016.2 |
| 20260508010150 | 70 | 255 | 7.0 | 8.7 | 0.00 | 0.00 | 0.00 | 64 | 1016.3 |
| 20260508005650 | 71 | 262 | 5.2 | 8.7 | 0.00 | 0.00 | 0.00 | 63 | 1015.9 |
| 20260508005149 | 71 | 220 | 3.5 | 8.7 | 0.00 | 0.00 | 0.00 | 62 | 1015.8 |
| 20260508004650 | 71 | 244 | 7.0 | 8.7 | 0.00 | 0.00 | 0.00 | 62 | 1015.7 |
| 20260508004150 | 72 | 229 | 3.5 | 8.7 | 0.00 | 0.00 | 0.00 | 60 | 1015.7 |
| 20260508003149 | 72 | 238 | 1.7 | 9.6 | 0.00 | 0.00 | 0.00 | 60 | 1015.7 |
| 20260508002649 | 73 | 246 | 1.7 | 9.6 | 0.00 | 0.00 | 0.00 | 59 | 1016.0 |
| 20260508001649 | 73 | 211 | 7.8 | 8.7 | 0.00 | 0.00 | 0.00 | 58 | 1015.9 |
| 20260508001150 | 73 | 246 | 1.7 | 8.7 | 0.00 | 0.00 | 0.00 | 58 | 1015.9 |
| 20260508000649 | 74 | 235 | 4.3 | 8.7 | 0.00 | 0.00 | 0.00 | 58 | 1015.9 |
| 20260508000149 | 74 | 267 | 1.7 | 8.7 | 0.00 | 0.00 | 0.00 | 57 | 1015.9 |
| 20260507235649 | 75 | 236 | 8.7 | 8.7 | 0.00 | 0.00 | 0.00 | 56 | 1016.1 |
| 20260507235149 | 76 | 235 | 5.2 | 8.7 | 0.00 | 0.00 | 0.00 | 55 | 1016.1 |
| 20260507234649 | 76 | 240 | 2.6 | 8.7 | 0.00 | 0.00 | 0.00 | 54 | 1016.0 |
| 20260507234149 | 76 | 238 | 0.0 | 9.6 | 0.00 | 0.00 | 0.00 | 55 | 1016.0 |
| 20260507233149 | 77 | 198 | 8.7 | 8.7 | 0.00 | 0.00 | 0.00 | 54 | 1016.4 |
| 20260507232149 | 77 | 235 | 4.3 | 10.4 | 0.00 | 0.00 | 0.00 | 52 | 1016.4 |
| 20260507230149 | 78 | 234 | 2.6 | 10.4 | 0.00 | 0.00 | 0.00 | 52 | 1016.6 |
| 20260507225649 | 78 | 217 | 3.5 | 12.2 | 0.00 | 0.00 | 0.00 | 52 | 1016.5 |
| 20260507225148 | 77 | 217 | 4.3 | 12.2 | 0.00 | 0.00 | 0.00 | 52 | 1016.2 |
| 20260507224648 | 77 | 215 | 2.6 | 9.6 | 0.00 | 0.00 | 0.00 | 51 | 1016.3 |
| 20260507224148 | 78 | 225 | 2.6 | 10.4 | 0.00 | 0.00 | 0.00 | 48 | 1016.5 |
| 20260507223649 | 78 | 213 | 2.6 | 10.4 | 0.00 | 0.00 | 0.00 | 49 | 1016.5 |